BRITE-AUSTRIA

Last updated on Mon Sep 21 2026 00:03:33 GMT+0000 (Coordinated Universal Time)

1 39091U 13009F 26263.42107859 .00000100 00000+0 48710-4 0 9994 2 39091 98.4048 80.5377 0009408 321.3918 38.6595 14.36572862710722
UTC large
Height (km)
Speed (km/s)
/
Latitude / Longitude
Inclination (degrees)
Orbital Period (minutes)
Azimuth
Elevation
Range (km)
Doppler Factor

Next 0 passes for location: London (51.5072 / 0.1276)

No passes found over London.
BRITE-AUSTRIA